TimeEST,TemperatureF,Dew PointF,Humidity,Sea Level PressureIn,VisibilityMPH,Wind Direction,Wind SpeedMPH,Gust SpeedMPH,PrecipitationIn,Events,Conditions,WindDirDegrees,DateUTC
12:54 AM,50.0,41.0,71,30.00,10.0,Calm,Calm,-,N/A,,Overcast,0,2009-01-24 05:54:00
1:54 AM,51.1,43.0,74,29.99,10.0,North,5.8,-,N/A,,Overcast,360,2009-01-24 06:54:00
2:54 AM,50.0,42.1,74,29.98,10.0,North,6.9,-,N/A,,Overcast,350,2009-01-24 07:54:00
3:54 AM,50.0,43.0,77,29.97,10.0,North,4.6,-,N/A,,Mostly Cloudy,360,2009-01-24 08:54:00
4:54 AM,48.9,43.0,80,29.97,10.0,North,4.6,-,N/A,,Overcast,10,2009-01-24 09:54:00
5:54 AM,48.9,43.0,80,29.98,10.0,North,3.5,-,N/A,,Mostly Cloudy,360,2009-01-24 10:54:00
6:54 AM,48.9,43.0,80,30.01,10.0,NNE,6.9,18.4,N/A,,Overcast,20,2009-01-24 11:54:00
7:54 AM,46.9,37.0,68,30.06,10.0,North,17.3,26.5,N/A,,Overcast,350,2009-01-24 12:54:00
8:54 AM,44.1,37.0,76,30.10,7.0,North,13.8,23.0,0.01,Rain,Light Rain,350,2009-01-24 13:54:00
9:54 AM,43.0,37.0,80,30.11,10.0,NW,9.2,-,0.00,,Mostly Cloudy,320,2009-01-24 14:54:00
10:54 AM,46.0,36.0,68,30.12,10.0,NW,8.1,-,N/A,,Clear,320,2009-01-24 15:54:00
11:54 AM,48.0,36.0,63,30.10,10.0,NNW,12.7,-,N/A,,Clear,340,2009-01-24 16:54:00
12:54 PM,48.0,33.1,56,30.08,10.0,NNW,12.7,18.4,N/A,,Clear,340,2009-01-24 17:54:00
1:54 PM,48.0,30.0,50,30.06,10.0,North,11.5,18.4,N/A,,Clear,350,2009-01-24 18:54:00
2:54 PM,46.9,28.9,50,30.07,10.0,North,13.8,24.2,N/A,,Clear,360,2009-01-24 19:54:00
3:54 PM,46.0,26.1,46,30.09,10.0,North,19.6,28.8,N/A,,Clear,350,2009-01-24 20:54:00
4:54 PM,44.1,26.1,49,30.10,10.0,NNW,20.7,27.6,N/A,,Clear,340,2009-01-24 21:54:00
5:54 PM,43.0,26.1,51,30.12,10.0,North,11.5,-,N/A,,Overcast,350,2009-01-24 22:54:00
6:54 PM,39.9,26.1,58,30.14,10.0,North,5.8,-,N/A,,Mostly Cloudy,350,2009-01-24 23:54:00
7:54 PM,37.9,26.1,62,30.15,10.0,NNW,11.5,-,N/A,,Overcast,340,2009-01-25 00:54:00
8:54 PM,37.9,26.1,62,30.16,10.0,North,10.4,-,N/A,,Overcast,350,2009-01-25 01:54:00
9:54 PM,36.0,25.0,64,30.17,10.0,North,10.4,-,N/A,,Overcast,350,2009-01-25 02:54:00
10:54 PM,35.1,23.0,61,30.17,10.0,North,8.1,-,N/A,,Overcast,350,2009-01-25 03:54:00
11:54 PM,34.0,23.0,64,30.18,10.0,North,10.4,17.3,N/A,,Overcast,360,2009-01-25 04:54:00